Weather History for Jackson, WY

Change the Weather History Date:

Thursday, January 17, 2013

  Actual Average Record
Temperature  
Mean Temperature 0 °F -  
Max Temperature 10 °F 28 °F 50 °F (1974)
Min Temperature -11 °F 5 °F -22 °F (1987)
Degree Days  
Heating Degree Days 66    
Moisture  
Dew Point -8 °F    
Average Humidity 90    
Maximum Humidity 100    
Minimum Humidity 77    
Precipitation  
Precipitation 0.00 in - - ()
Sea Level Pressure  
Sea Level Pressure 30.50 in    
Wind  
Wind Speed 6 mph (NNE)    
Max Wind Speed 12 mph    
Max Gust Speed -    
Visibility 10 miles    
Events      
Averages and records for this station are not official NWS values.
T = Trace of Precipitation, MM = Missing Value Source: NWS Daily Summary

Daily Weather History Graph

Daily Weather History Graph

Search for Another Location

Airport:

Trip Planner

Search our weather history database for the weather conditions in past years. The results will help you decide how hot, cold, wet, or windy it might be!

Date:

Astronomy

Jan. 17, 2013 Rise Set
Actual Time 7:51 AM MST 5:14 PM MST
Civil Twilight 7:20 AM MST 5:46 PM MST
Nautical Twilight 6:45 AM MST 6:21 PM MST
Astronomical Twilight 6:10 AM MST 6:56 PM MST
Moon 10:46 AM MST (1/17) No Moon Set
Length of Visible Light 10h 26m
Length of Day
9h 22m
Waxing Crescent, 38% of the Moon is Illuminated
Jan 17
Waxing Crescent
Jan 18
First Quarter
Jan 26
Full
Feb 3
Last Quarter
Feb 10
New

Hourly Weather History & Observations

Time (MST) Temp. Windchill Dew Point Humidity Pressure Visibility Wind Dir Wind Speed Gust Speed Precip Events Conditions
12:15 AM -5.8 °F -19.9 °F -7.6 °F 92% 30.54 in 10.0 mi North 6.9 mph - N/A   Clear
12:55 AM -9.4 °F -22.7 °F -11.2 °F 92% 30.54 in 10.0 mi North 5.8 mph - N/A   Clear
1:15 AM -9.4 °F -26.8 °F -11.2 °F 92% 30.54 in 10.0 mi North 9.2 mph - N/A   Clear
1:35 AM -9.4 °F -25.6 °F -11.2 °F 92% 30.54 in 10.0 mi North 8.1 mph - N/A   Clear
1:55 AM -9.4 °F -27.9 °F -11.2 °F 92% 30.54 in 10.0 mi North 10.4 mph - N/A   Clear
2:15 AM -9.4 °F -26.8 °F -9.4 °F 100% 30.54 in 10.0 mi North 9.2 mph - N/A   Clear
2:35 AM -5.8 °F -19.9 °F -7.6 °F 92% 30.55 in 10.0 mi North 6.9 mph - N/A   Clear
2:55 AM -7.6 °F -22.1 °F -9.4 °F 92% 30.55 in 10.0 mi NNE 6.9 mph - N/A   Clear
3:15 AM -5.8 °F -16.7 °F -7.6 °F 92% 30.56 in 10.0 mi NNE 4.6 mph - N/A   Clear
3:35 AM -5.8 °F - -7.6 °F 92% 30.56 in 10.0 mi Calm Calm - N/A   Clear
3:55 AM -7.6 °F -20.6 °F -9.4 °F 92% 30.55 in 10.0 mi NNE 5.8 mph - N/A   Clear
4:15 AM -9.4 °F -25.6 °F -11.2 °F 92% 30.55 in 10.0 mi NNE 8.1 mph - N/A   Clear
4:35 AM -9.4 °F -28.9 °F -11.2 °F 92% 30.55 in 10.0 mi North 11.5 mph - N/A   Clear
4:55 AM -11.2 °F -27.8 °F -14.8 °F 84% 30.55 in 10.0 mi North 8.1 mph - N/A   Clear
5:15 AM -11.2 °F -29.0 °F -14.8 °F 84% 30.55 in 10.0 mi North 9.2 mph - N/A   Clear
5:35 AM -9.4 °F -24.3 °F -11.2 °F 92% 30.55 in 10.0 mi NNE 6.9 mph - N/A   Clear
5:55 AM -9.4 °F -22.7 °F -11.2 °F 92% 30.54 in 10.0 mi ENE 5.8 mph - N/A   Clear
6:16 AM -9.4 °F - -13.0 °F 84% 30.54 in 10.0 mi Calm Calm - N/A   Clear
6:35 AM -11.2 °F - -14.8 °F 84% 30.55 in 10.0 mi Calm Calm - N/A   Clear
6:55 AM -11.2 °F - -14.8 °F 84% 30.55 in 10.0 mi Calm Calm - N/A   Clear
7:52 AM -11.2 °F - -16.6 °F 77% 30.55 in 10.0 mi Calm Calm - N/A   Clear
8:56 AM -9.4 °F -18.6 °F -11.2 °F 92% 30.57 in 10.0 mi North 3.5 mph - N/A   Clear
9:55 AM -5.8 °F -19.9 °F -7.6 °F 92% 30.58 in 10.0 mi East 6.9 mph - N/A   Clear
10:51 AM -2.2 °F - -5.8 °F 85% 30.57 in 10.0 mi Calm Calm - N/A   Clear
12:51 PM 6.8 °F - 3.2 °F 85% 30.50 in 10.0 mi Calm Calm - N/A   Clear
2:11 PM 8.6 °F - 3.2 °F 79% 30.46 in 10.0 mi Calm Calm - N/A   Clear
2:51 PM 10.4 °F - 5.0 °F 79% 30.44 in 10.0 mi Calm Calm - N/A   Clear
3:51 PM 10.4 °F - 6.8 °F 85% 30.44 in 10.0 mi Calm Calm - N/A   Clear
4:54 PM 6.8 °F - 1.4 °F 79% 30.44 in 10.0 mi Calm Calm - N/A   Clear
5:55 PM 5.0 °F -2.1 °F 1.4 °F 85% 30.44 in 10.0 mi North 3.5 mph - N/A   Clear
6:58 PM -4.0 °F -20.2 °F -5.8 °F 92% 30.43 in 10.0 mi North 9.2 mph - N/A   Clear
7:51 PM -2.2 °F -18.9 °F -4.0 °F 92% 30.43 in 10.0 mi North 10.4 mph - N/A   Clear
8:51 PM -7.6 °F -22.1 °F -9.4 °F 92% 30.42 in 10.0 mi North 6.9 mph - N/A   Clear
8:55 PM -7.6 °F -18.8 °F -9.4 °F 92% 30.42 in 10.0 mi NE 4.6 mph - N/A   Clear
9:15 PM -5.8 °F -19.9 °F -5.8 °F 100% 30.42 in 10.0 mi NNE 6.9 mph - N/A   Clear
9:35 PM -7.6 °F -23.4 °F -9.4 °F 92% 30.43 in 10.0 mi North 8.1 mph - N/A   Clear
9:55 PM -7.6 °F -22.1 °F -9.4 °F 92% 30.42 in 10.0 mi North 6.9 mph - N/A   Clear
10:15 PM -5.8 °F -18.4 °F -7.6 °F 92% 30.42 in 10.0 mi NNE 5.8 mph - N/A   Clear
10:35 PM -5.8 °F -16.7 °F -5.8 °F 100% 30.42 in 10.0 mi NNE 4.6 mph - N/A   Clear
10:55 PM -5.8 °F -14.5 °F -5.8 °F 100% 30.42 in 10.0 mi ENE 3.5 mph - N/A   Clear
11:15 PM -5.8 °F -14.5 °F -7.6 °F 92% 30.41 in 10.0 mi North 3.5 mph - N/A   Clear
11:35 PM -5.8 °F -22.4 °F -7.6 °F 92% 30.42 in 10.0 mi North 9.2 mph - N/A   Clear
11:55 PM -5.8 °F -16.7 °F -7.6 °F 92% 30.41 in 10.0 mi ENE 4.6 mph - N/A   Clear